TimeCDT,TemperatureF,Dew PointF,Humidity,Sea Level PressureIn,VisibilityMPH,Wind Direction,Wind SpeedMPH,Gust SpeedMPH,PrecipitationIn,Events,Conditions,WindDirDegrees,DateUTC
12:09 AM,31.1,24.8,77,30.25,10.0,Calm,Calm,-,N/A,,Overcast,0,2013-03-27 05:09:00
12:29 AM,30.0,23.7,77,30.26,10.0,Calm,Calm,-,N/A,,Overcast,0,2013-03-27 05:29:00
12:49 AM,30.0,23.7,77,30.26,10.0,Calm,Calm,-,N/A,,Overcast,0,2013-03-27 05:49:00
1:10 AM,30.0,24.8,81,30.26,10.0,Calm,Calm,-,N/A,,Overcast,0,2013-03-27 06:10:00
1:29 AM,29.7,23.5,78,30.26,10.0,Calm,Calm,-,N/A,,Overcast,0,2013-03-27 06:29:00
1:49 AM,30.0,22.3,73,30.27,10.0,Calm,Calm,-,N/A,,Overcast,0,2013-03-27 06:49:00
2:10 AM,32.2,20.3,62,30.27,10.0,Calm,Calm,-,N/A,,Overcast,0,2013-03-27 07:10:00
2:29 AM,30.0,21.4,70,30.27,10.0,North,3.5,-,N/A,,Overcast,10,2013-03-27 07:29:00
2:49 AM,30.9,21.0,67,30.27,10.0,NNW,4.6,-,N/A,,Overcast,340,2013-03-27 07:49:00
3:10 AM,34.9,13.1,41,30.26,10.0,Calm,Calm,-,N/A,,Overcast,0,2013-03-27 08:10:00
3:29 AM,32.2,18.3,57,30.26,10.0,Calm,Calm,-,N/A,,Overcast,0,2013-03-27 08:29:00
3:49 AM,30.2,19.0,63,30.26,10.0,Calm,Calm,-,N/A,,Overcast,0,2013-03-27 08:49:00
4:09 AM,30.0,19.9,66,30.26,10.0,Calm,Calm,-,N/A,,Overcast,0,2013-03-27 09:09:00
4:29 AM,30.0,19.6,65,30.26,10.0,Calm,Calm,-,N/A,,Overcast,0,2013-03-27 09:29:00
4:50 AM,28.6,20.3,71,30.26,10.0,Calm,Calm,-,N/A,,Overcast,0,2013-03-27 09:50:00
5:09 AM,29.8,20.7,69,30.26,10.0,Calm,Calm,-,N/A,,Overcast,0,2013-03-27 10:09:00
5:29 AM,29.3,21.0,71,30.27,10.0,Calm,Calm,-,N/A,,Overcast,0,2013-03-27 10:29:00
5:50 AM,28.2,20.7,73,30.27,10.0,Calm,Calm,-,N/A,,Overcast,0,2013-03-27 10:50:00
6:09 AM,27.5,20.5,75,30.27,10.0,Calm,Calm,-,N/A,,Overcast,0,2013-03-27 11:09:00
6:29 AM,29.8,21.6,71,30.27,10.0,Calm,Calm,-,N/A,,Overcast,0,2013-03-27 11:29:00
6:50 AM,27.5,20.3,74,30.28,10.0,Calm,Calm,-,N/A,,Overcast,0,2013-03-27 11:50:00
7:09 AM,27.5,20.1,74,30.28,10.0,Calm,Calm,-,N/A,,Overcast,0,2013-03-27 12:09:00
7:29 AM,28.8,20.3,71,30.29,10.0,Calm,Calm,-,N/A,,Overcast,0,2013-03-27 12:29:00
7:50 AM,28.6,20.1,71,30.29,10.0,Calm,Calm,-,N/A,,Overcast,0,2013-03-27 12:50:00
8:09 AM,29.5,20.8,70,30.30,10.0,Calm,Calm,-,N/A,,Overcast,0,2013-03-27 13:09:00
8:29 AM,30.0,20.7,68,30.30,10.0,Calm,Calm,-,N/A,,Overcast,0,2013-03-27 13:29:00
8:50 AM,30.0,20.7,68,30.30,10.0,Calm,Calm,-,N/A,,Overcast,0,2013-03-27 13:50:00
9:09 AM,32.2,22.3,67,30.29,10.0,Calm,Calm,-,N/A,,Overcast,0,2013-03-27 14:09:00
9:30 AM,33.8,17.8,52,30.29,10.0,Calm,Calm,-,N/A,,Overcast,0,2013-03-27 14:30:00
9:49 AM,34.9,15.8,46,30.30,10.0,NE,4.6,-,N/A,,Overcast,50,2013-03-27 14:49:00
10:09 AM,37.4,16.0,42,30.30,10.0,Calm,Calm,-,N/A,,Overcast,0,2013-03-27 15:09:00
10:30 AM,37.4,15.1,40,30.30,10.0,Calm,Calm,-,N/A,,Overcast,0,2013-03-27 15:30:00
10:49 AM,37.4,15.8,41,30.30,10.0,NNE,3.5,-,N/A,,Overcast,30,2013-03-27 15:49:00
11:09 AM,37.4,14.0,38,30.30,10.0,Calm,Calm,-,N/A,,Overcast,0,2013-03-27 16:09:00
11:30 AM,37.4,16.2,42,30.30,10.0,Calm,Calm,-,N/A,,Overcast,0,2013-03-27 16:30:00
11:49 AM,37.4,14.5,39,30.30,10.0,NNE,5.8,-,N/A,,Overcast,30,2013-03-27 16:49:00
12:09 PM,37.4,13.5,38,30.30,10.0,Calm,Calm,-,N/A,,Overcast,0,2013-03-27 17:09:00
12:30 PM,37.4,13.8,38,30.30,10.0,NNW,6.9,-,N/A,,Overcast,340,2013-03-27 17:30:00
12:49 PM,37.4,14.4,39,30.30,10.0,NW,3.5,-,N/A,,Overcast,320,2013-03-27 17:49:00
1:10 PM,37.4,13.8,38,30.30,10.0,Calm,Calm,-,N/A,,Overcast,0,2013-03-27 18:10:00
1:29 PM,37.4,14.0,38,30.30,10.0,Calm,Calm,-,N/A,,Overcast,0,2013-03-27 18:29:00
1:49 PM,38.7,13.8,36,30.30,10.0,West,5.8,-,N/A,,Overcast,280,2013-03-27 18:49:00
2:10 PM,37.6,14.7,39,30.29,10.0,West,8.1,-,N/A,,Scattered Clouds,260,2013-03-27 19:10:00
2:29 PM,38.7,14.0,37,30.29,10.0,SSW,4.6,-,N/A,,Clear,210,2013-03-27 19:29:00
2:49 PM,40.1,13.1,33,30.29,10.0,Calm,Calm,-,N/A,,Clear,0,2013-03-27 19:49:00
3:10 PM,39.9,14.4,35,30.28,10.0,West,6.9,-,N/A,,Clear,260,2013-03-27 20:10:00
3:29 PM,40.1,13.5,34,30.28,10.0,SW,3.5,-,N/A,,Clear,230,2013-03-27 20:29:00
3:50 PM,40.1,12.9,33,30.27,10.0,West,4.6,-,N/A,,Scattered Clouds,280,2013-03-27 20:50:00
4:09 PM,40.1,13.6,34,30.27,10.0,WNW,4.6,-,N/A,,Scattered Clouds,300,2013-03-27 21:09:00
4:29 PM,40.1,14.5,35,30.27,10.0,NW,6.9,-,N/A,,Scattered Clouds,320,2013-03-27 21:29:00
4:50 PM,40.1,13.3,34,30.27,10.0,NNW,4.6,-,N/A,,Scattered Clouds,340,2013-03-27 21:50:00
5:09 PM,40.1,13.3,34,30.27,10.0,NW,4.6,-,N/A,,Clear,310,2013-03-27 22:09:00
5:29 PM,40.1,14.9,36,30.27,10.0,WNW,5.8,-,N/A,,Clear,300,2013-03-27 22:29:00
5:49 PM,40.1,14.5,35,30.27,10.0,West,5.8,-,N/A,,Clear,280,2013-03-27 22:49:00
6:09 PM,40.1,13.3,34,30.27,10.0,WNW,5.8,-,N/A,,Clear,300,2013-03-27 23:09:00
6:29 PM,40.1,14.2,35,30.27,10.0,NW,6.9,-,N/A,,Clear,310,2013-03-27 23:29:00
6:49 PM,38.7,14.4,37,30.27,10.0,West,5.8,-,N/A,,Clear,270,2013-03-27 23:49:00
7:10 PM,37.8,13.6,37,30.27,10.0,WNW,4.6,-,N/A,,Clear,300,2013-03-28 00:10:00
7:29 PM,37.4,14.2,39,30.27,10.0,WNW,4.6,-,N/A,,Clear,300,2013-03-28 00:29:00
7:49 PM,34.9,14.9,44,30.27,10.0,Calm,Calm,-,N/A,,Clear,0,2013-03-28 00:49:00
8:09 PM,31.8,18.9,59,30.27,10.0,Calm,Calm,-,N/A,,Clear,0,2013-03-28 01:09:00
8:29 PM,30.0,18.5,62,30.27,10.0,Calm,Calm,-,N/A,,Clear,0,2013-03-28 01:29:00
8:50 PM,28.2,18.9,68,30.27,10.0,Calm,Calm,-,N/A,,Clear,0,2013-03-28 01:50:00
9:09 PM,26.6,18.0,70,30.28,10.0,Calm,Calm,-,N/A,,Clear,0,2013-03-28 02:09:00
9:29 PM,27.5,17.6,66,30.28,10.0,Calm,Calm,-,N/A,,Clear,0,2013-03-28 02:29:00
9:50 PM,24.8,18.1,76,30.28,10.0,Calm,Calm,-,N/A,,Clear,0,2013-03-28 02:50:00
10:09 PM,25.7,17.2,70,30.28,10.0,ENE,3.5,-,N/A,,Clear,70,2013-03-28 03:09:00
10:29 PM,24.8,17.4,74,30.29,10.0,Calm,Calm,-,N/A,,Clear,0,2013-03-28 03:29:00
10:49 PM,22.5,16.3,77,30.29,10.0,Calm,Calm,-,N/A,,Clear,0,2013-03-28 03:49:00
11:10 PM,22.5,16.7,79,30.29,10.0,Calm,Calm,-,N/A,,Clear,0,2013-03-28 04:10:00
11:29 PM,22.5,17.4,81,30.29,10.0,Calm,Calm,-,N/A,,Clear,0,2013-03-28 04:29:00
11:49 PM,21.4,16.3,81,30.29,10.0,Calm,Calm,-,N/A,,Clear,0,2013-03-28 04:49:00